COSMOS 886 DEB, 9963

Orbit data source: Space-Track

COSMOS 886 DEB, 9963 is space debris in LEO originally from a launch on Mon, 27 Dec 1976 UTC launched from the Tyuratam Missile And Space Complex (TTMTR). Debris objects in space refer to the collection of defunct objects orbiting the Earth. Examples of debris include non-operational satellites, rocket bodies, and fragments generated from explosions, collisions, or faulty payload assembly.

Loading next visibility...
Identifier
9963, 1976-126BD
Orbit
LEO
Country
Flag of CISCIS
Related business
Manufacturer
Unknown
Mission
Spacecraft
Bus & Motor
Unknown
Mass
Unknown
Launch date (UTC)
1976-12-27 (49 years ago)
Launch vehicle
Unknown
Launch site
Tyuratam Missile And Space Complex (TTMTR)
Object type
Payload
Rocket body
Debris
Shape & HBR
Unknown shape, 0.2 m
Radar Cross Section
Medium (>0.1 m² and <1 m²)

Expand to show TLE details & history
Last TLE update: 17 hours ago

TLE from 17 hours ago
0 COSMOS 886 DEB
1 09963U 76126BD  26129.75420658  .00001288  00000-0  44181-3 0  9996
2 09963  65.7941 254.5278 0767714  90.1426 278.7520 13.38146612348830
Epoch: 2026-05-09T18:06Z
TLE epoch observation values (Epoch: 2026-05-09T18:06:03.448Z)
Latitude
-0.00002°
Longitude
115.44632°
Altitude
1,074.348 km
Speed
7.337 km/s
True Right ascension
16h 58m 06s
True Declination
0° 00' 00"
Sunlit
Object was in full shadow at epoch
Visualization orbit readout
Latitude
Unknown
Longitude
Unknown
Altitude
Unknown
Speed
Unknown
Apparent Right ascension
Unknown
Apparent Declination
Unknown
Sunlit
N/A
Visualization observer readout
Local Sidereal Time
19:45:12
Azimuth
Unknown
Elevation
Unknown
Doppler factor
Unknown
Orbital elements
Apogee altitude
1,689.964 km
Perigee altitude
539.489 km
Semi-major axis
7,492.864 km
Eccentricity
0.07677
Inclination
65.7941°
RAAN
254.5278°
Arg. of periapsis
90.1426°
True anomaly
269.96297°
Mean anomaly
278.752°
Eccentric anomaly
274.36609°
Mean motion
3.34635 °/min
Orbital period
107.58 mins
BSTAR
0.00044181
Loading maneuver chart data...
Computing Atmospheric mass density...
Loading historical data...
Loading historical data...
Loading historical data...
Loading historical data...
Loading historical data...
Loading historical data...
Loading historical data...

Documentation

Showing up to 5 results
|